TimeEDT,TemperatureF,Dew PointF,Humidity,Sea Level PressureIn,VisibilityMPH,Wind Direction,Wind SpeedMPH,Gust SpeedMPH,PrecipitationIn,Events,Conditions,WindDirDegrees,DateUTC
12:53 AM,82.0,75.9,82,29.96,10.0,East,3.5,-,N/A,,Partly Cloudy,90,2013-10-21 04:53:00
1:53 AM,82.0,75.0,79,29.95,10.0,ESE,4.6,-,N/A,,Clear,120,2013-10-21 05:53:00
2:53 AM,82.9,73.0,72,29.95,10.0,SE,5.8,-,N/A,,Clear,140,2013-10-21 06:53:00
3:53 AM,82.9,75.0,77,29.94,10.0,SSE,3.5,-,N/A,,Clear,150,2013-10-21 07:53:00
4:53 AM,82.9,73.0,72,29.95,10.0,SSE,5.8,-,N/A,,Clear,150,2013-10-21 08:53:00
5:53 AM,82.9,73.9,74,29.95,10.0,SSE,5.8,-,N/A,,Clear,150,2013-10-21 09:53:00
6:53 AM,82.9,73.9,74,29.97,10.0,SSE,4.6,-,N/A,,Clear,160,2013-10-21 10:53:00
7:53 AM,82.9,73.9,74,29.98,10.0,SSE,5.8,-,N/A,,Clear,160,2013-10-21 11:53:00
8:53 AM,82.9,75.0,77,29.99,10.0,South,3.5,-,N/A,,Partly Cloudy,180,2013-10-21 12:53:00
9:53 AM,86.0,75.0,70,30.00,10.0,SSE,5.8,-,N/A,,Clear,160,2013-10-21 13:53:00
10:53 AM,88.0,75.9,67,30.01,10.0,SSE,5.8,-,N/A,,Partly Cloudy,160,2013-10-21 14:53:00
11:53 AM,89.1,75.9,65,30.01,10.0,SSE,4.6,-,N/A,,Clear,160,2013-10-21 15:53:00
12:53 PM,90.0,75.0,61,29.98,10.0,SSE,6.9,-,N/A,,Clear,150,2013-10-21 16:53:00
1:53 PM,89.1,75.9,65,29.95,10.0,SSE,4.6,-,N/A,,Partly Cloudy,150,2013-10-21 17:53:00
2:53 PM,89.1,75.0,63,29.94,10.0,South,4.6,-,N/A,,Partly Cloudy,170,2013-10-21 18:53:00
3:53 PM,88.0,73.9,63,29.93,10.0,Variable,3.5,-,N/A,,Clear,0,2013-10-21 19:53:00
4:53 PM,86.0,73.9,67,29.92,10.0,SSE,3.5,-,N/A,,Clear,150,2013-10-21 20:53:00
5:53 PM,84.9,73.9,69,29.93,10.0,Calm,Calm,-,N/A,,Clear,0,2013-10-21 21:53:00
6:53 PM,84.0,73.9,72,29.93,10.0,Calm,Calm,-,N/A,,Clear,0,2013-10-21 22:53:00
7:53 PM,82.9,73.9,74,29.95,10.0,Calm,Calm,-,N/A,,Clear,0,2013-10-21 23:53:00
8:53 PM,82.9,75.0,77,29.96,10.0,Calm,Calm,-,N/A,,Clear,0,2013-10-22 00:53:00
9:53 PM,82.9,75.0,77,29.98,10.0,Calm,Calm,-,N/A,,Clear,0,2013-10-22 01:53:00
10:53 PM,82.0,73.9,76,29.98,10.0,Calm,Calm,-,N/A,,Clear,0,2013-10-22 02:53:00
11:53 PM,82.0,73.9,76,29.97,10.0,East,3.5,-,N/A,,Clear,90,2013-10-22 03:53:00